Location: Gammelsbach
(49.5261°N, 8.9630°E)
Time: 04:52:53
(UTC+00:00)

BREEZE-M DEB (TANK) - Pass Details

Date: 17 June 2025
Orbit: 301 x 14774 km, 49.5° (Epoch: 12 July)

Event Time Altitude Azimuth Distance (km) Brightness Sun altitude
Exits shadow 23:03:45 18° 130° (SE) 1,804 4.5 -16.9°
Maximum altitude 23:04:44 19° 114° (ESE) 1,973 4.8 -16.9°
Drops below altitude 10° 23:10:25 10° 73° (ENE) 4,036 6.8 -17.0°
Sets 23:17:47 0° 62° (ENE) 7,024 8.3 -17.0°
